Temp
13 13 14 15 15 16 17 17 17 16 16 16 16 17 17 18 18 19 20 20 20 20 20 20 20 20 20 21 21 21 21 21 20 20 22 24 24 23 23 23 23 23 24 24 24 24 23 23 23 21 22 22 22 23 22 22 23 24 24 23 22 21 21 22 22 22 22 21 21 21 22 21 20 20 20 19 19 18 17 17 17 17 17 17 17 17 17 17
14 14 15 15 16 16 17 17 17 17 17 17 17 17 18 18 19 19 20 20 21 21 21 21 21 21 21 21 21 21 21 21 21 21 23 24 24 24 24 23 24 24 24 24 24 24 24 24 22 21 23 23 22 23 23 23 24 24 23 23 22 21 22 23 22 22 22 21 21 21 21 21 20 20 20 19 18 18 18 18 18 18 18 18 17 17 17 17
14 15 15 15 16 16 17 18 18 17 17 17 17 18 18 19 19 20 20 21 21 21 21 21 21 21 21 21 21 21 21 22 23 23 24 24 24 25 24 24 24 24 24 24 24 24 24 24 22 22 24 24 23 23 24 24 24 24 23 24 23 22 23 23 22 22 22 21 21 20 20 21 20 20 21 19 18 18 18 18 18 18 18 18 18 17 17 17
14 15 15 15 16 17 18 18 18 18 18 18 18 18 19 19 20 20 21 21 22 22 22 22 21 21 21 21 21 21 21 23 24 24 25 25 25 25 24 24 24 24 24 24 24 23 23 22 22 22 24 25 23 23 25 24 24 24 24 25 23 22 23 22 22 22 22 21 21 20 21 21 20 21 20 19 19 19 18 18 18 18 18 18 18 17 17 16
14 15 15 16 16 17 18 18 19 19 18 18 18 19 19 20 20 21 21 22 22 22 22 21 21 21 21 21 21 21 22 24 24 24 25 25 25 25 25 24 24 24 24 24 23 23 23 22 22 23 24 25 24 24 25 24 25 24 23 23 23 23 23 21 22 22 21 21 21 20 21 21 21 20 20 19 20 19 19 19 18 18 18 18 17 17 17 16
15 15 16 16 17 18 18 19 19 19 19 19 19 19 20 20 20 21 22 22 22 22 21 21 21 22 21 22 22 21 23 24 24 25 25 25 25 25 24 24 24 24 24 24 23 23 23 22 23 25 25 25 25 25 25 24 25 25 23 22 22 23 22 21 21 21 21 21 21 20 21 21 20 20 19 19 19 18 18 18 18 18 18 18 17 17 16 15
15 15 16 16 17 18 18 19 19 19 20 20 20 20 20 20 21 21 22 22 22 22 22 21 22 22 22 22 22 22 24 24 24 25 25 25 25 25 25 24 24 24 24 23 22 23 23 24 25 25 25 25 24 24 24 24 25 25 23 22 22 22 22 21 21 21 21 21 20 21 21 20 20 20 19 18 17 17 18 18 18 18 18 17 17 16 15 15
15 16 16 17 17 18 18 19 19 20 20 20 20 20 20 20 21 21 21 22 22 22 22 22 22 22 22 22 23 24 25 25 25 26 26 26 25 25 25 25 25 24 24 23 23 23 24 25 25 24 25 25 24 24 24 25 25 25 23 22 22 22 21 21 21 21 21 20 20 21 20 20 20 19 18 17 17 17 17 18 17 17 17 17 16 15 14 14
16 16 17 17 18 18 19 19 19 20 20 20 21 21 21 21 21 22 22 22 23 23 22 22 22 22 22 21 22 25 25 25 26 26 26 26 26 26 25 25 25 24 24 24 23 23 24 26 25 25 25 25 24 24 25 25 25 24 23 22 22 21 20 21 21 21 21 20 21 21 19 19 19 19 18 17 17 17 17 17 17 17 16 16 15 14 14 13
16 16 17 17 18 18 19 19 20 20 20 21 21 21 21 22 22 22 23 23 23 23 22 22 22 22 22 22 23 25 26 26 26 26 26 26 26 26 25 25 25 25 25 25 24 24 25 26 25 24 25 25 24 24 25 25 25 23 22 21 21 21 20 21 21 21 21 20 21 20 19 19 20 20 19 18 17 17 17 16 16 16 16 15 15 14 14 14
16 17 17 18 18 19 19 20 20 21 21 21 21 22 22 22 23 23 23 23 23 23 23 22 22 22 22 23 25 25 26 26 26 26 26 26 26 26 26 26 25 26 26 25 25 25 26 25 24 24 25 25 25 25 24 24 23 22 22 21 21 21 21 21 21 20 21 20 20 19 19 20 21 21 19 17 17 17 16 16 16 16 15 15 15 14 14 14
16 17 18 18 19 19 20 21 21 21 21 22 22 22 23 23 23 23 23 23 23 23 23 23 23 23 22 23 25 25 26 26 27 27 27 27 27 27 27 27 26 26 27 26 26 26 26 25 25 26 26 25 26 25 24 23 22 22 22 21 21 21 21 21 21 20 21 20 20 20 20 20 21 19 18 17 17 17 16 16 16 16 15 15 15 14 14 13
17 17 18 18 19 20 21 21 22 22 22 22 23 23 24 24 24 24 24 24 24 23 23 23 23 23 23 24 26 26 26 27 27 27 27 27 27 27 27 27 27 27 27 27 26 26 27 26 27 26 25 26 26 25 24 23 23 22 22 21 21 21 20 21 21 21 21 20 20 21 21 20 20 18 17 18 17 17 17 16 16 15 15 15 15 14 14 14
17 18 18 19 20 21 21 22 22 22 23 23 24 24 24 24 24 24 24 24 24 24 23 23 24 23 24 26 26 27 27 27 28 27 27 27 27 28 28 27 27 27 28 27 27 27 27 27 27 26 25 25 25 24 24 24 22 22 22 21 20 20 20 21 21 21 21 20 20 21 21 20 18 17 18 18 17 17 16 16 16 15 15 15 14 14 14 14
17 18 19 19 20 21 22 22 23 23 23 24 25 25 25 25 25 25 24 24 24 24 24 24 24 24 25 26 27 27 27 27 28 28 27 27 27 27 28 28 28 27 28 27 27 27 27 27 26 26 25 24 24 26 25 24 22 21 21 20 19 20 21 21 21 21 21 20 20 21 21 19 18 17 18 18 18 17 16 16 16 15 15 15 14 14 15 14
17 18 19 20 21 21 22 23 23 23 24 24 25 25 25 25 25 25 25 24 24 24 24 24 23 23 24 26 27 27 27 27 28 28 28 27 27 27 27 28 28 28 28 27 28 27 27 26 24 23 25 25 25 26 25 23 23 22 21 20 20 20 20 21 22 21 21 20 19 20 20 18 18 18 18 18 18 17 17 16 16 15 15 15 15 15 15 14
18 19 19 20 21 22 22 23 23 24 24 25 25 25 25 25 25 25 25 24 24 24 24 24 23 23 25 26 27 27 26 26 27 27 28 28 27 27 27 27 26 26 27 27 28 27 25 24 23 22 23 22 23 25 24 21 22 22 21 21 20 20 20 20 21 21 21 21 19 19 19 19 18 18 18 18 18 17 17 16 16 15 15 15 15 15 15 14
18 19 20 21 21 22 23 23 24 24 25 25 25 25 25 25 25 25 25 24 23 24 24 24 23 23 25 26 26 25 26 26 27 27 28 28 27 27 26 26 25 25 26 27 26 26 24 23 24 24 24 23 23 25 23 21 22 22 22 22 21 20 20 20 21 21 21 21 20 19 19 19 18 17 18 18 18 17 16 16 16 15 15 15 15 15 14 14
19 19 20 21 22 22 22 23 24 24 25 25 25 25 25 25 25 25 24 24 24 24 24 24 23 23 24 25 24 25 26 27 27 27 27 27 27 27 25 24 24 25 27 26 25 24 23 24 24 24 24 24 24 24 23 23 23 23 22 22 22 21 21 21 21 22 21 20 20 20 19 19 18 17 17 18 18 17 17 16 16 15 15 15 15 15 14 15
19 19 20 21 22 22 22 23 23 24 25 25 25 25 24 23 24 24 23 23 23 22 24 24 23 23 24 25 25 26 27 27 27 27 27 27 26 26 24 23 25 26 25 25 25 23 22 23 23 22 23 23 22 22 23 23 23 23 23 22 22 21 22 22 22 22 21 21 20 20 19 18 17 17 17 18 17 17 17 16 16 15 15 15 15 15 14 15
19 20 21 21 22 22 22 23 23 24 24 25 25 23 21 20 22 22 21 22 22 19 21 22 21 23 24 24 24 25 26 27 26 26 27 26 26 26 24 24 26 26 23 22 23 22 22 23 22 21 22 21 21 21 22 22 22 23 23 23 22 21 22 22 22 21 21 22 20 19 18 17 17 17 17 18 17 17 17 16 16 16 15 15 15 15 15 15
18 20 21 21 22 22 22 23 23 23 23 24 23 21 19 19 20 20 20 22 22 19 21 23 22 23 24 24 25 25 26 26 26 26 27 26 26 26 24 24 25 24 23 23 24 23 23 22 22 21 21 21 20 20 22 23 22 22 22 22 21 21 21 22 22 20 20 22 19 17 18 17 17 17 17 17 17 18 17 17 16 16 15 15 15 15 15 15
19 19 20 21 22 23 23 23 23 24 23 22 21 20 19 20 20 21 20 21 23 22 23 24 24 24 25 26 25 26 26 25 25 26 26 26 26 25 24 24 23 23 23 23 24 23 22 22 22 20 20 22 22 21 23 24 22 22 22 22 21 21 21 22 22 19 19 20 19 17 18 17 17 18 18 17 17 17 18 17 17 16 16 15 15 15 15 15
19 19 20 21 22 23 23 23 23 23 22 21 20 20 20 21 21 21 21 20 22 24 24 23 24 24 25 26 25 26 26 24 24 26 26 26 25 24 24 24 24 23 22 22 23 23 22 22 21 20 20 23 24 22 23 24 22 22 22 22 22 22 22 22 21 20 19 19 19 19 18 18 17 17 18 17 17 17 17 17 17 17 16 16 15 15 15 15
19 20 20 21 22 23 23 23 23 22 22 21 21 21 20 21 21 21 22 21 22 24 24 23 24 25 25 26 25 25 25 25 25 25 25 25 25 25 24 22 23 24 22 21 23 23 22 21 20 22 22 22 24 23 21 22 22 21 22 22 22 23 23 22 22 21 20 20 19 19 20 19 17 17 17 17 17 17 17 16 17 16 16 15 15 15 15 15
19 20 20 21 22 23 24 24 22 22 22 22 21 21 21 21 21 21 23 22 22 23 24 25 25 25 25 25 25 25 24 25 25 25 25 25 25 25 24 22 23 23 22 22 22 22 22 21 20 22 23 23 23 22 20 21 22 21 21 22 22 23 22 22 22 22 21 20 18 18 20 19 18 17 17 16 17 17 16 16 16 15 15 15 15 15 15 15
19 19 20 21 22 23 24 23 22 22 22 22 21 21 21 22 22 22 22 21 21 22 23 24 25 25 26 24 24 24 24 24 25 25 25 25 24 24 24 23 23 22 21 21 21 22 23 23 21 22 23 23 22 22 21 21 22 22 22 22 22 22 22 22 22 21 20 19 19 18 19 19 19 18 16 15 17 16 16 16 15 15 16 16 15 15 15 15
19 19 20 21 21 22 22 22 21 22 22 21 21 21 22 22 22 23 22 20 21 23 23 24 25 26 25 23 23 25 24 24 25 25 24 25 24 24 24 23 22 21 20 22 22 21 22 23 23 23 23 22 22 22 20 20 22 22 21 21 20 21 21 21 22 21 19 19 20 19 18 19 20 17 14 15 16 16 16 15 15 16 16 16 15 15 15 15
19 19 20 21 21 21 21 21 21 22 21 21 21 22 22 22 23 23 22 20 22 23 23 24 26 25 24 24 24 25 24 24 24 24 23 24 24 24 24 22 22 22 21 22 22 22 22 22 22 23 22 22 22 21 20 20 22 22 19 19 19 19 19 20 21 21 20 19 20 20 18 19 20 18 15 15 16 16 15 15 16 16 16 16 15 15 15 14
19 20 20 21 21 21 21 22 22 22 21 21 21 22 22 23 23 22 20 20 22 23 23 24 25 23 24 25 25 24 24 24 24 24 23 23 23 23 22 21 22 23 22 22 22 21 21 21 21 22 21 21 22 20 19 19 20 20 20 21 21 20 19 19 19 20 20 20 20 18 17 18 20 19 16 15 16 16 16 15 16 16 16 16 15 15 15 14
19 20 21 21 22 21 21 22 23 22 21 21 21 22 23 23 22 20 20 21 22 22 23 23 23 23 23 24 23 23 24 23 23 24 23 22 22 23 22 21 22 23 22 22 22 21 22 22 21 21 20 20 22 21 20 18 18 19 21 22 22 20 20 20 19 19 20 20 19 18 16 17 20 20 17 16 16 16 16 16 16 16 16 15 15 15 14 14
20 20 21 22 22 21 21 23 23 22 21 22 22 23 23 22 21 20 21 21 21 22 23 23 22 23 23 23 22 22 23 23 22 22 22 21 21 21 21 21 21 21 20 20 20 21 22 22 21 21 21 20 22 22 21 21 20 21 22 21 20 20 19 20 19 19 19 19 19 17 17 18 19 19 17 16 17 16 17 17 16 16 16 15 15 15 14 14
21 21 22 22 22 22 22 23 22 22 22 22 22 24 23 21 20 20 20 21 21 22 22 22 22 22 22 23 22 21 22 22 22 21 20 20 21 20 20 19 19 20 20 19 19 21 21 21 20 21 22 21 21 21 21 21 21 21 20 20 20 19 19 19 18 17 18 19 18 17 17 19 19 19 17 16 17 16 16 17 17 16 16 16 15 15 14 14
21 22 22 23 23 23 23 22 22 22 22 22 23 24 22 21 20 20 21 22 22 22 22 22 22 22 22 22 21 21 22 21 21 21 21 21 21 21 21 20 19 20 20 19 18 19 20 20 20 21 21 21 21 20 20 20 20 19 18 19 20 19 19 19 18 19 18 18 18 18 18 19 19 19 17 16 16 15 15 16 16 16 16 15 15 14 14 14
22 22 23 23 23 23 23 22 22 22 21 22 24 23 21 20 20 20 22 22 22 22 22 21 22 23 22 21 20 20 21 21 20 21 21 21 20 20 21 21 20 20 20 20 18 18 19 19 20 20 19 20 21 20 19 20 20 18 16 19 20 19 19 18 16 17 17 18 18 18 17 17 17 18 17 17 17 17 17 16 15 15 15 14 15 14 14 14
22 22 23 23 23 23 23 22 23 22 21 23 24 22 21 21 21 21 22 23 23 23 23 21 22 22 21 21 21 21 21 21 21 21 21 20 19 20 20 21 20 20 20 20 19 19 19 19 20 20 20 19 20 19 19 19 20 19 18 19 18 17 18 18 15 15 15 18 18 16 17 17 18 18 18 18 19 19 19 18 17 16 14 14 15 14 14 14
22 22 23 23 23 23 23 23 23 21 22 25 24 21 21 22 22 22 23 22 22 23 23 22 21 20 20 21 21 21 21 21 20 21 20 20 19 20 21 21 20 20 19 19 19 18 19 20 20 20 20 20 17 18 19 18 19 20 20 19 17 16 18 18 18 17 16 18 17 15 16 17 18 19 18 18 19 19 19 19 18 17 16 15 15 14 13 13
22 22 22 22 23 23 23 23 22 21 22 25 23 20 21 22 22 22 23 22 22 23 23 21 20 20 20 20 21 20 20 20 21 20 20 20 20 20 21 21 21 20 18 19 20 18 17 20 20 19 20 20 18 19 20 19 18 19 19 18 17 18 19 18 18 18 17 17 17 16 15 16 18 19 18 18 19 20 19 19 18 18 18 17 15 14 14 13
21 22 22 22 22 23 23 22 21 22 24 24 22 21 21 22 23 22 22 22 22 23 23 21 20 20 19 20 21 20 20 20 20 20 20 20 20 20 20 20 21 20 18 19 20 18 17 19 20 19 18 18 19 20 20 19 18 18 18 18 18 18 18 17 17 17 17 17 16 16 16 17 18 18 19 20 20 20 20 19 19 20 19 18 16 14 14 14
18 21 23 21 22 23 22 22 22 24 24 22 21 22 21 22 24 23 22 22 22 22 22 21 20 20 20 20 20 20 20 20 20 19 20 19 20 21 20 20 21 21 19 20 19 17 17 18 19 20 19 18 19 19 18 18 18 18 19 19 18 17 16 16 16 15 17 17 16 15 16 18 19 17 18 20 20 19 19 19 19 19 18 17 16 14 14 14
16 22 22 21 22 22 22 23 22 21 22 21 20 21 22 23 24 23 22 22 22 21 21 21 21 21 21 20 19 19 20 20 20 19 20 20 20 20 20 20 21 21 21 21 20 18 19 18 18 19 19 19 19 18 16 17 17 18 19 18 17 17 17 17 16 15 15 16 16 15 16 18 19 16 16 18 18 18 17 17 18 18 17 16 15 15 14 14
18 23 21 20 22 22 22 23 20 18 21 22 21 21 22 23 23 23 23 23 22 22 22 21 21 20 21 20 19 19 20 20 20 19 20 20 20 20 20 19 20 20 21 21 19 18 18 18 19 19 18 18 18 16 14 15 16 16 17 16 16 17 17 18 17 16 16 15 14 15 16 18 18 16 15 16 16 17 16 16 17 18 17 16 15 15 14 14
21 22 21 21 22 21 22 23 20 19 22 22 20 21 22 23 23 23 23 23 23 23 23 22 21 21 21 20 20 20 20 20 19 19 20 20 20 21 20 19 19 20 21 20 19 18 18 18 19 19 18 18 18 16 14 15 16 17 17 15 15 16 17 17 16 16 16 15 15 15 15 18 19 16 15 15 15 16 17 16 16 18 17 15 15 15 14 14
18 18 19 22 22 22 22 22 22 22 22 21 22 22 22 22 23 23 23 23 22 22 23 22 21 21 20 19 20 20 19 19 20 19 19 20 20 20 20 19 19 20 21 21 20 19 19 18 18 18 18 18 19 18 17 17 17 18 17 14 14 15 15 16 15 15 16 16 16 16 16 18 19 16 16 16 16 18 18 17 15 17 17 15 15 15 15 14
17 18 19 20 21 21 21 20 22 23 22 22 23 22 22 22 22 21 22 22 21 21 22 21 20 20 20 19 20 19 18 19 20 19 19 19 21 21 20 20 20 21 21 19 19 20 19 17 17 18 18 17 18 18 18 18 17 16 16 15 15 15 15 16 16 16 16 15 14 16 17 18 19 18 18 19 18 19 19 17 16 16 16 15 15 16 15 14
19 21 20 20 21 20 19 17 19 22 22 22 22 21 21 22 22 21 21 22 21 20 21 21 20 20 20 20 20 20 19 18 19 20 20 20 21 21 19 20 21 21 20 19 19 19 18 17 17 18 18 18 18 18 17 16 17 17 17 17 15 14 15 16 16 17 16 15 15 17 17 17 18 19 19 19 18 18 17 17 16 17 17 16 15 15 14 13
19 21 20 21 21 20 20 18 19 21 21 21 22 21 21 22 22 21 21 21 21 20 20 20 20 21 21 20 20 20 19 19 19 20 19 19 20 20 19 20 20 20 20 19 18 18 19 18 17 17 19 18 18 17 15 15 16 17 17 17 16 14 15 16 16 16 16 15 16 16 15 15 18 18 18 18 17 17 16 16 17 16 16 16 16 15 14 13
17 19 17 17 20 21 21 20 19 20 20 20 21 21 21 22 21 22 22 21 20 20 21 20 20 20 21 20 21 20 19 19 19 19 18 18 19 20 20 20 20 19 20 19 18 18 20 19 16 16 18 18 17 16 15 15 16 15 15 16 16 15 15 16 17 16 15 16 17 16 14 15 17 17 17 17 17 16 16 16 15 14 15 16 16 15 15 14
16 17 15 15 18 20 19 18 18 20 20 20 20 21 21 22 22 21 20 21 21 20 20 21 21 20 19 20 21 20 19 20 20 19 19 18 18 19 20 20 19 19 20 20 18 17 19 19 16 16 18 18 17 15 14 15 15 15 16 16 15 14 14 14 15 14 14 15 16 14 13 14 15 16 17 17 15 14 14 14 14 15 16 16 16 16 16 15
15 16 16 16 18 18 17 17 18 20 20 19 21 21 21 22 22 20 19 20 22 20 19 21 21 19 18 19 21 21 20 20 21 20 19 19 18 18 19 20 19 19 19 20 18 17 18 18 15 16 18 18 17 15 14 15 15 15 16 15 13 13 13 13 13 12 13 14 14 13 13 15 15 15 15 16 14 14 15 16 17 17 16 16 17 17 17 16
12 12 13 17 19 18 17 18 18 20 21 20 21 21 20 21 22 21 20 19 20 21 21 21 21 18 17 18 20 21 20 20 21 20 19 20 19 19 19 19 19 19 19 19 18 18 19 17 15 16 18 18 16 16 16 16 15 15 16 17 16 16 15 15 13 13 14 15 15 14 15 17 17 14 14 16 16 16 17 18 18 18 17 16 17 18 18 16
10 11 11 15 19 17 17 18 18 20 21 20 20 20 21 21 20 20 21 19 18 19 20 20 20 19 18 19 20 21 21 20 20 20 19 20 19 19 19 19 18 19 19 19 18 17 18 18 17 17 18 18 16 15 15 16 16 17 17 18 18 17 16 15 14 13 13 14 16 16 17 18 16 13 15 17 17 17 18 17 17 17 17 16 16 17 18 17
Height
796 795 793 792 790 788 786 785 783 782 780 779 778 777 776 775 774 774 774 773 773 773 773 773 772 772 771 770 769 768 767 766 766 766 766 766 766 766 767 767 768 768 768 768 768 769 769 769 770 770 771 774 776 777 777 777 778 781 789 797 803 810 808 801 803 802 800 806 809 807 805 810 816 814 812 814 819 822 823 823 821 820 820 822 824 825 826 827
796 795 793 791 790 788 787 785 784 782 781 779 778 777 776 775 775 774 774 773 773 773 773 772 772 771 770 770 769 767 767 766 766 766 766 766 766 767 767 767 767 768 768 768 768 768 769 770 769 770 773 775 777 777 778 778 778 784 792 796 799 803 799 793 796 796 796 804 807 807 807 809 814 815 813 819 826 825 825 826 824 824 824 824 825 826 827 827
796 795 793 792 790 788 787 785 784 783 781 780 779 778 777 776 775 775 774 774 773 773 773 772 772 770 770 769 767 767 766 766 767 768 766 766 767 767 767 767 767 768 767 767 767 767 768 768 768 770 773 776 778 777 779 779 780 784 789 793 795 795 793 792 795 795 795 800 805 809 808 809 813 813 814 821 827 826 826 826 824 826 825 825 825 826 827 827
797 795 793 791 790 788 787 785 784 783 782 780 779 778 777 777 776 775 774 774 773 773 773 772 771 770 770 768 767 767 765 768 771 769 767 767 767 767 767 767 767 767 767 767 767 767 767 767 768 769 772 776 778 778 779 780 780 782 785 789 791 791 794 795 795 797 798 800 804 808 810 813 814 813 816 821 825 827 826 823 822 823 823 824 825 826 827 828
797 795 793 792 790 788 787 786 784 783 782 781 780 779 778 777 776 776 775 774 773 773 772 772 771 770 769 767 768 766 766 776 776 767 767 767 767 768 767 768 767 767 767 767 767 767 767 767 768 770 773 776 778 779 780 778 776 783 787 787 787 788 794 798 796 798 800 801 806 809 812 815 814 815 819 821 823 824 822 821 821 821 822 823 825 826 828 828
797 795 794 792 790 788 787 786 785 784 783 781 780 779 778 778 777 776 775 774 773 773 773 772 770 769 769 767 767 764 768 780 774 766 769 767 767 768 768 768 767 767 767 767 767 766 767 768 769 772 774 776 779 780 781 778 775 784 791 789 788 787 792 797 797 799 800 803 809 811 813 814 817 820 820 821 823 822 819 819 822 823 823 824 825 827 828 829
797 795 794 792 790 788 786 786 785 784 783 781 780 779 779 778 777 777 776 775 774 774 773 772 770 770 768 767 767 765 769 775 770 767 769 767 768 768 767 768 767 767 767 767 766 766 768 768 771 773 775 777 779 780 780 779 776 783 792 792 791 791 794 797 798 801 802 806 810 811 813 816 820 822 822 825 826 823 820 821 823 824 825 825 827 828 829 830
797 796 794 792 790 788 787 786 785 784 783 781 780 779 779 778 778 777 776 776 774 774 773 772 771 769 768 767 767 769 772 771 768 768 768 767 768 767 767 767 766 767 765 766 766 766 767 769 771 773 777 778 777 780 779 779 780 784 792 794 794 796 798 799 799 803 805 809 811 812 817 820 820 821 825 828 827 824 823 824 825 826 827 828 829 829 830 831
798 796 793 792 790 788 787 786 785 784 783 781 780 779 779 778 778 777 777 776 774 774 773 771 771 769 769 768 768 774 774 769 767 768 768 768 767 767 767 766 766 766 765 766 765 765 767 769 771 770 774 776 775 779 777 780 785 785 790 793 795 800 801 800 802 805 808 810 810 815 823 823 820 821 827 830 827 826 826 827 829 828 830 830 831 831 831 832
798 796 794 792 790 789 787 786 785 784 783 782 780 779 778 778 777 777 776 776 774 773 772 771 771 769 769 767 771 777 772 766 768 768 768 768 767 767 767 766 766 765 765 765 765 766 765 766 767 765 769 773 775 779 778 780 784 786 791 795 798 802 803 801 804 807 809 812 811 817 825 825 820 822 829 830 828 828 828 830 832 831 832 833 833 833 833 833
798 796 794 792 790 789 787 786 785 784 783 781 780 779 778 778 777 777 776 775 774 773 772 771 770 769 768 768 773 777 770 766 768 767 767 768 767 767 766 766 766 765 764 764 764 764 763 763 762 764 769 772 774 779 782 782 785 788 792 801 807 806 806 806 807 809 810 814 816 817 824 825 821 823 829 830 829 829 831 833 833 834 835 834 834 835 835 835
798 796 794 792 790 789 787 786 785 784 783 781 780 779 778 777 777 776 776 775 774 773 772 771 770 769 768 770 774 773 767 767 767 766 767 766 766 766 765 766 765 765 764 763 764 763 762 762 760 765 770 771 776 782 786 785 788 792 793 805 815 812 813 812 811 812 811 817 817 816 827 829 826 829 830 829 830 831 832 835 835 836 836 836 836 837 837 838
798 796 794 792 790 788 787 786 785 783 782 780 779 778 777 777 776 776 776 775 774 773 773 771 771 769 770 774 772 768 767 767 766 766 767 766 766 765 765 765 764 764 764 763 764 763 763 762 761 766 768 770 778 782 786 787 791 798 800 808 817 822 823 815 813 814 815 820 815 817 833 837 833 833 831 829 830 832 834 836 837 838 838 838 839 839 840 840
798 796 794 792 790 788 787 786 784 783 781 780 778 778 777 777 777 777 775 775 774 773 772 771 771 769 771 774 769 767 768 766 767 767 766 766 765 765 765 765 764 764 764 763 763 763 763 762 761 765 768 773 778 779 786 793 798 805 809 815 822 829 828 816 814 817 819 822 816 818 832 837 836 835 831 830 831 833 836 837 837 839 839 840 841 841 842 842
798 796 794 792 790 788 787 785 783 782 780 779 778 778 777 777 777 776 776 775 774 773 772 772 771 770 774 775 768 767 768 766 767 766 766 766 765 765 764 764 764 764 763 763 763 764 763 762 765 772 775 774 777 783 791 798 805 810 818 829 831 829 827 819 815 817 820 821 818 821 832 838 839 835 831 830 832 833 837 838 839 840 840 841 842 842 843 843
798 796 794 792 790 788 787 784 783 781 780 779 778 778 778 777 777 776 776 775 774 774 772 773 772 772 779 778 769 768 768 767 767 767 767 766 766 766 765 764 764 763 764 764 763 764 763 764 772 779 779 780 784 789 795 802 808 811 819 831 833 829 830 825 817 816 818 821 823 826 834 842 838 832 831 830 831 834 837 839 840 841 841 841 842 843 843 844
798 796 794 792 790 788 786 784 783 781 780 779 779 778 778 777 777 776 776 774 775 774 772 774 772 773 778 775 771 772 770 769 768 767 767 766 766 766 765 765 765 764 764 763 764 764 766 771 780 784 785 792 795 791 802 815 813 811 815 822 827 829 831 830 823 818 817 822 828 829 833 837 833 831 832 830 831 834 836 839 841 841 842 841 842 843 844 844
797 796 794 792 790 788 786 785 783 781 781 780 779 779 779 778 778 777 777 775 774 773 774 774 773 782 786 776 775 776 771 770 768 767 767 766 766 766 766 766 766 766 767 769 770 771 775 779 783 788 791 796 797 794 807 819 811 808 811 813 821 825 828 830 824 817 816 823 829 831 833 832 832 833 832 830 831 834 837 839 841 842 842 842 842 843 844 844
797 796 794 792 790 788 787 785 784 782 781 780 780 779 778 778 777 778 777 776 778 781 785 782 780 791 794 780 775 774 771 770 769 768 768 766 766 767 767 768 769 770 775 780 781 781 783 786 790 797 801 800 801 800 803 807 804 806 810 811 816 819 823 825 818 811 813 824 830 830 831 831 833 835 832 831 831 834 838 839 841 843 843 842 842 843 844 845
797 796 794 793 791 789 788 786 785 783 782 781 780 779 783 786 786 785 782 780 784 787 788 786 785 788 786 779 775 773 772 771 770 769 768 767 766 767 769 770 772 775 783 789 789 789 790 797 806 809 808 805 805 804 802 803 804 806 809 811 815 816 817 817 814 810 811 822 830 828 830 833 833 833 831 831 833 836 838 839 841 843 843 843 843 844 844 845
797 796 794 793 791 790 789 787 787 785 784 783 780 783 792 797 797 797 792 787 784 784 785 784 783 784 781 778 776 774 774 773 771 769 769 768 766 770 776 776 780 786 792 794 792 792 793 805 814 810 808 807 807 807 803 805 807 808 809 810 815 818 816 813 813 814 812 819 830 830 833 838 835 834 833 833 834 835 835 837 839 841 842 842 843 844 844 845
797 796 794 793 792 791 790 789 788 787 786 784 782 788 795 797 797 797 797 795 788 783 784 783 782 783 778 777 776 775 777 779 777 772 769 769 769 776 782 783 789 794 795 794 795 799 803 811 812 807 807 807 808 809 803 805 811 813 814 813 817 819 819 815 813 819 817 817 831 836 837 841 838 835 835 834 835 833 833 836 838 840 842 842 842 843 844 845
798 796 794 793 792 792 791 790 789 788 788 787 788 792 795 795 795 794 796 800 796 786 784 784 784 785 780 778 777 776 781 785 785 779 771 771 775 780 785 788 794 797 798 798 799 807 814 813 809 808 808 803 806 810 803 804 811 814 814 815 819 820 820 818 817 822 820 818 829 836 839 842 840 837 836 835 836 834 834 836 837 839 840 842 843 843 844 845
798 796 795 793 792 792 791 791 790 790 790 790 791 793 794 794 794 794 795 802 802 791 786 786 785 785 784 780 778 779 784 786 787 783 775 776 780 783 787 792 795 800 806 805 802 808 814 811 808 810 809 803 805 809 806 807 813 816 814 814 817 816 815 817 819 822 823 824 826 830 839 844 842 841 840 837 836 835 835 836 837 838 840 841 842 843 844 845
797 796 795 793 793 792 791 791 790 791 791 791 793 793 794 793 792 793 795 804 807 795 787 786 785 785 782 780 780 781 784 786 785 783 777 778 782 785 790 793 796 803 810 808 805 809 812 810 809 808 807 806 805 810 815 814 815 818 816 813 813 812 813 816 817 820 826 831 827 827 840 846 844 843 841 839 839 838 838 839 840 841 842 845 846 845 845 845
798 796 795 793 793 791 791 791 791 792 791 792 793 792 793 792 792 792 795 809 815 804 795 791 790 788 783 783 781 780 790 792 784 780 779 779 780 783 792 797 797 803 807 806 807 810 811 810 811 809 807 808 809 813 819 817 816 819 816 811 812 812 813 814 814 817 825 832 831 830 836 843 844 842 840 841 842 841 841 842 842 843 844 846 847 846 845 845
798 796 795 794 793 791 791 792 792 792 792 793 792 792 792 791 791 790 799 822 826 810 802 796 792 790 786 785 782 786 801 798 784 782 781 781 781 781 792 800 800 804 805 807 813 815 810 809 812 811 809 810 814 816 818 817 817 818 813 811 814 814 813 815 814 818 825 830 831 832 835 839 840 841 843 843 842 843 844 844 843 842 840 839 841 843 844 844
798 796 795 794 793 792 792 793 793 792 793 793 791 791 791 790 791 791 808 838 832 808 804 798 789 787 785 785 784 790 798 795 793 793 783 781 784 784 794 802 805 808 806 807 818 819 811 810 812 810 812 816 817 816 817 819 816 814 812 814 818 817 816 817 815 819 829 831 829 832 837 839 837 841 848 846 843 844 845 843 844 843 838 835 838 840 841 842
798 796 795 794 794 793 793 793 793 792 793 792 790 791 789 788 791 796 818 839 825 804 804 798 789 790 790 789 790 793 793 794 800 796 785 785 787 787 797 803 803 808 806 806 815 816 811 812 811 810 815 818 816 815 817 818 814 811 815 818 820 822 822 823 822 821 828 834 832 834 839 839 835 838 847 848 843 843 843 844 842 839 836 835 837 838 838 840
797 795 794 794 793 793 793 793 792 792 792 791 790 789 788 790 797 814 835 836 819 809 804 798 796 798 798 797 798 798 797 798 799 795 792 795 792 791 798 801 800 806 809 809 813 815 812 809 809 811 816 816 813 816 818 819 816 814 815 814 815 821 824 827 831 827 831 839 838 840 844 844 836 833 840 844 839 837 840 842 839 833 833 834 835 836 836 838
796 795 794 793 793 793 792 792 791 792 791 790 790 787 789 798 809 830 841 827 816 813 805 803 805 802 803 806 808 806 803 803 802 800 802 803 801 800 803 805 805 809 816 817 816 817 813 811 814 814 814 815 813 815 817 818 818 816 814 814 817 826 827 828 832 831 838 845 841 841 847 846 839 832 834 837 833 832 833 834 835 832 831 832 832 833 835 836
795 794 793 792 793 792 792 792 791 791 791 789 789 788 796 811 823 835 833 819 818 818 810 810 810 806 807 809 813 813 810 810 808 808 812 815 815 815 816 819 818 820 830 833 827 822 818 817 819 815 813 814 814 816 817 815 815 815 817 820 827 839 840 839 843 845 847 846 841 844 845 842 838 832 833 834 830 830 829 826 829 830 829 829 830 831 833 835
794 793 793 792 792 792 791 791 790 791 790 787 789 792 803 823 835 836 829 821 821 816 810 812 811 811 811 811 817 818 815 816 814 813 817 819 820 822 822 824 824 823 831 839 836 829 825 823 820 817 815 814 816 822 825 823 820 820 825 829 834 846 853 855 860 861 855 846 842 847 845 840 837 832 833 834 829 829 829 826 826 826 827 827 828 830 832 833
793 792 792 791 791 791 791 791 790 790 789 787 791 799 812 830 835 830 825 821 817 812 811 814 812 813 814 816 822 820 818 821 818 816 818 818 822 825 823 822 823 822 826 837 842 839 839 836 827 824 823 819 818 824 827 826 826 829 834 832 833 842 849 854 857 854 854 850 844 844 844 844 842 833 831 831 829 830 829 827 827 827 827 828 828 830 831 832
792 792 792 791 791 791 790 791 790 789 789 788 795 808 822 833 833 827 821 816 813 812 814 815 813 816 820 821 823 821 819 821 821 820 822 824 829 830 827 824 823 825 826 834 843 844 847 843 829 824 825 822 821 823 823 825 828 835 837 832 834 839 842 853 861 857 856 854 849 848 849 848 843 832 829 829 826 826 825 826 828 828 828 829 829 830 830 831
792 791 791 791 791 791 791 791 790 789 789 790 802 817 824 825 824 822 815 809 811 812 814 817 818 822 825 824 824 822 819 820 823 824 826 831 833 831 829 825 823 825 825 831 841 843 846 843 828 824 825 823 823 823 822 826 829 834 836 834 839 841 839 850 864 866 863 856 855 859 853 845 840 832 829 828 824 823 822 822 825 828 829 830 829 829 830 830
792 791 791 791 791 791 791 791 790 790 789 793 807 821 822 816 814 813 809 808 811 810 813 823 826 828 831 830 827 825 821 822 825 827 829 834 833 829 827 825 822 824 825 828 835 838 842 840 830 828 827 823 825 825 823 826 827 830 834 836 838 841 840 844 853 861 863 858 856 861 858 850 845 839 833 830 827 825 823 822 824 827 827 827 828 828 829 829
792 792 792 792 791 792 791 790 790 790 791 799 813 821 819 814 809 808 807 807 809 809 815 826 828 830 834 834 831 828 827 826 827 830 833 835 833 827 827 826 821 823 826 825 828 836 842 840 833 831 830 826 825 825 826 827 826 828 832 835 837 841 844 846 850 856 862 864 862 861 863 858 848 841 835 832 829 825 824 825 824 823 823 824 826 827 828 829
792 793 794 793 792 792 791 791 791 791 794 806 817 819 816 812 807 806 806 806 808 810 817 826 828 830 833 832 830 830 830 830 831 834 835 836 835 827 825 827 822 822 826 823 827 837 842 843 839 832 831 831 826 828 835 835 830 828 831 834 837 843 848 850 854 857 858 866 868 863 860 853 842 838 833 827 827 825 824 825 823 821 820 821 824 826 827 828
794 797 797 794 792 792 792 791 791 794 800 812 818 815 814 810 804 804 805 805 808 810 816 824 826 827 829 831 831 831 832 832 833 835 835 835 834 828 824 826 823 823 824 823 829 838 841 845 844 834 831 836 835 836 841 841 839 836 835 839 841 845 852 853 856 861 858 861 870 870 863 847 836 837 833 825 825 826 826 826 823 821 821 821 823 825 826 827
796 800 799 794 793 794 792 793 799 805 809 815 817 814 811 808 804 804 804 803 807 809 812 818 822 824 826 829 832 831 831 833 833 835 835 833 834 832 826 824 823 823 823 823 829 835 837 842 845 841 838 840 839 839 842 841 842 841 839 843 846 847 851 853 859 865 861 860 866 870 864 846 833 836 836 830 827 827 828 828 824 822 822 822 822 823 824 825
799 803 800 794 794 794 793 800 810 815 812 810 812 810 808 806 806 806 805 804 806 808 809 814 820 824 825 827 831 831 830 832 834 835 834 833 833 831 826 823 824 823 824 829 832 833 835 839 843 844 843 842 840 843 846 845 843 843 843 847 850 848 848 852 858 860 859 864 867 867 865 848 833 834 836 833 831 829 829 829 825 821 820 820 821 822 824 824
801 802 797 794 795 794 797 806 813 813 810 809 810 808 806 806 807 807 807 807 808 809 810 815 819 821 823 825 828 830 830 833 835 835 833 833 830 825 824 824 825 824 824 830 833 831 835 842 845 845 844 841 838 841 845 845 843 843 845 851 851 848 847 850 855 855 856 862 864 865 866 847 830 833 836 834 834 829 827 828 825 821 819 820 821 821 822 822
804 803 798 796 795 795 800 808 811 810 811 809 808 807 806 807 808 808 809 809 810 811 812 816 819 819 822 826 826 829 832 834 835 834 833 833 828 823 823 823 824 824 823 826 829 828 835 846 849 850 852 849 845 846 844 842 843 843 847 853 853 851 851 852 855 856 856 858 859 862 862 845 830 833 834 831 830 825 822 825 825 822 819 820 821 820 820 821
805 804 802 798 795 797 803 809 808 809 812 811 810 811 810 809 809 810 811 811 812 813 813 817 819 818 822 826 827 831 833 832 833 833 833 832 826 822 822 822 821 822 821 825 825 825 835 847 848 851 860 862 859 856 851 846 847 848 850 852 853 853 852 850 854 856 856 861 862 857 852 840 830 829 827 824 826 823 820 822 823 822 820 819 820 818 819 820
803 804 805 802 799 801 806 810 809 808 810 811 813 816 815 813 812 810 810 812 813 814 815 818 819 819 823 826 827 831 833 832 833 831 831 831 826 823 824 822 821 821 822 824 825 828 840 848 847 847 852 856 853 850 851 852 850 849 847 847 851 855 853 851 855 855 854 860 859 849 846 841 833 829 826 823 825 825 824 822 821 820 819 818 819 818 819 820
804 805 807 806 805 805 807 810 810 808 809 810 812 816 816 815 815 813 811 813 814 815 817 819 819 820 824 826 828 831 833 833 832 831 833 833 828 826 825 822 822 822 822 825 827 831 838 844 847 847 844 845 846 846 852 855 850 849 848 846 849 855 854 852 852 851 853 858 853 845 849 848 835 829 829 826 826 826 825 823 821 820 819 818 818 819 819 819
806 807 809 808 808 808 808 809 810 810 811 811 813 815 816 815 817 816 813 814 815 815 817 821 822 821 823 824 825 830 834 834 833 834 835 835 831 829 826 824 824 823 823 827 829 831 835 841 849 849 842 842 846 849 853 853 850 852 851 847 849 853 853 850 847 849 852 851 846 846 852 848 836 831 830 827 826 826 823 822 823 822 820 818 817 817 817 818
808 808 810 809 808 809 811 812 812 810 810 812 813 815 815 814 816 817 816 816 816 817 819 821 823 823 824 824 823 828 833 833 834 835 834 835 836 834 831 829 828 827 825 827 831 834 836 843 851 851 845 841 844 850 854 852 851 851 848 848 852 854 855 853 851 854 854 849 845 849 853 848 838 833 828 824 826 829 826 824 823 820 818 817 816 816 816 817
809 808 809 809 808 811 813 813 811 809 811 814 813 813 814 814 814 816 818 817 817 819 820 819 821 825 828 826 822 823 826 825 827 830 831 833 836 836 834 832 830 829 828 829 835 837 837 846 854 852 847 844 845 851 853 852 854 851 845 848 854 855 856 856 856 858 856 851 849 852 853 845 834 831 829 826 828 828 823 820 818 816 816 817 815 814 814 814
810 810 811 808 808 811 813 812 812 810 810 812 811 812 815 813 812 813 815 817 817 816 816 816 819 825 828 828 823 820 821 821 821 823 824 827 830 830 830 831 831 831 831 833 836 835 836 848 855 851 849 849 848 851 850 848 852 853 845 842 845 845 846 848 852 854 851 846 846 850 847 834 826 830 830 825 824 823 819 817 815 814 815 816 813 811 811 811
810 811 811 809 808 813 813 812 814 812 810 811 812 811 811 811 812 813 815 817 817 815 815 816 818 823 826 826 822 817 817 819 820 820 822 822 824 825 826 829 829 830 832 835 838 839 839 843 848 852 852 850 851 855 853 847 848 848 841 835 835 839 842 845 848 850 849 844 841 841 835 825 826 833 829 822 820 820 817 816 816 814 813 813 813 811 809 809
Wind_Speed
19 18 17 16 16 16 17 17 15 14 13 12 11 11 10 9 8 6 5 4 4 5 6 7 9 10 12 13 15 16 16 11 4 1 1 2 2 1 1 2 3 3 3 3 3 3 2 1 2 4 6 3 1 1 1 1 1 4 3 3 3 4 5 5 7 6 6 7 5 4 6 7 4 3 3 5 8 6 7 9 8 10 10 12 13 15 15 14
20 18 17 16 16 16 17 16 14 13 13 11 11 10 9 8 7 6 5 5 5 6 7 9 10 11 12 14 15 16 13 6 3 2 2 3 2 2 2 3 3 2 2 1 1 3 2 3 2 4 5 2 1 1 1 1 2 3 2 3 2 6 4 4 8 7 8 10 7 6 7 8 6 5 4 3 5 6 9 9 11 14 12 13 14 14 14 14
21 19 18 17 17 17 17 15 12 12 13 12 11 10 9 8 7 6 5 5 7 8 9 10 10 12 13 15 16 14 8 4 5 3 3 4 4 3 4 3 3 2 1 1 1 0 0 2 1 4 4 2 0 1 2 1 1 2 3 3 3 6 4 4 7 6 8 12 11 7 6 7 5 2 3 5 7 6 8 7 10 15 14 13 12 13 14 14
21 20 19 18 17 17 16 14 12 12 13 12 12 10 9 8 7 6 6 6 8 8 9 10 11 13 14 15 14 10 5 5 4 3 2 3 4 4 4 3 2 2 2 2 2 2 1 1 3 3 4 2 2 1 2 1 2 1 3 3 5 5 5 4 6 7 8 10 10 8 6 7 4 1 3 7 7 3 5 3 5 15 17 14 12 12 13 13
22 21 20 19 18 17 16 13 11 11 13 13 12 10 9 8 7 7 7 7 8 8 9 11 13 13 15 16 12 7 4 6 2 3 2 2 3 3 2 2 2 3 4 3 3 1 1 3 5 4 4 1 1 3 1 3 2 3 3 2 5 6 6 4 7 9 8 9 9 9 7 6 3 3 3 4 3 2 4 3 6 12 14 12 12 12 11 11
22 22 21 20 18 17 16 12 10 11 13 13 12 10 9 8 8 7 6 7 8 10 12 13 14 14 15 14 9 5 4 4 3 2 2 2 0 1 1 2 4 5 5 3 2 0 2 3 5 3 3 2 1 2 2 3 2 4 3 3 3 6 8 6 8 9 9 11 9 7 5 4 6 4 2 3 2 1 5 8 9 11 12 12 12 11 9 8
23 22 21 20 19 17 15 12 10 11 12 13 12 10 9 8 8 7 7 8 10 12 13 13 14 14 14 10 6 5 6 3 3 1 2 3 2 3 3 4 5 4 4 2 2 2 3 4 4 3 4 3 1 2 2 1 5 6 3 3 4 6 8 8 8 8 9 10 7 6 6 4 7 5 2 5 3 3 8 9 9 12 13 13 11 9 8 9
23 23 21 20 18 17 14 12 10 11 12 12 11 10 9 8 7 6 8 10 12 12 12 13 14 14 12 6 2 5 4 1 3 3 2 3 4 5 5 5 4 3 3 2 3 5 3 3 1 3 3 2 2 3 1 4 6 5 5 3 5 6 7 9 9 10 10 8 7 8 7 4 5 5 3 4 3 5 9 9 10 12 11 10 9 8 9 10
24 23 21 20 18 16 14 11 11 11 12 12 11 10 9 8 7 7 9 10 11 11 12 13 14 13 10 4 4 5 2 3 4 3 2 4 6 7 7 5 4 3 2 2 3 4 2 1 2 2 2 1 3 3 1 5 3 2 7 7 8 7 7 10 10 10 8 6 8 10 7 5 4 4 3 2 3 5 8 9 8 9 8 8 7 7 9 9
24 23 21 20 17 16 13 12 11 11 11 11 10 9 8 8 7 8 8 9 10 11 12 13 14 12 8 3 6 5 3 4 6 4 5 6 8 9 8 6 5 3 3 3 1 2 1 2 3 3 4 1 3 3 3 4 3 4 9 8 9 9 6 8 10 8 7 5 8 11 9 3 1 3 1 1 4 6 8 7 5 7 7 6 6 6 9 10
24 23 21 19 17 15 13 12 12 11 11 10 9 7 7 7 7 7 8 8 10 11 12 13 14 12 6 4 7 5 5 8 7 8 8 8 9 10 9 8 6 5 6 5 1 2 2 3 2 4 3 1 3 6 6 3 6 10 14 11 9 7 5 6 9 8 7 5 4 10 10 1 5 3 1 3 5 5 8 7 5 6 5 6 6 5 7 9
24 23 21 20 18 16 14 13 12 12 11 9 7 5 5 6 6 7 7 8 10 11 11 12 13 10 5 5 5 2 7 10 8 8 8 9 10 10 10 10 7 6 7 4 4 5 4 3 3 5 1 2 3 5 5 4 8 9 12 12 6 7 5 2 4 5 4 4 5 8 7 3 6 3 2 6 6 5 8 7 5 5 4 5 5 4 5 7
24 23 21 20 18 16 15 14 13 13 11 8 5 4 5 6 6 7 8 9 10 10 10 11 13 9 5 4 1 4 9 9 7 7 8 11 11 9 9 10 7 6 7 5 5 6 7 6 4 5 2 5 3 3 4 5 8 7 6 7 6 6 1 3 1 4 5 2 7 6 3 3 5 3 4 7 6 7 7 6 5 4 4 4 4 4 4 5
24 23 21 20 19 17 15 15 15 13 9 5 3 4 5 5 6 7 8 10 10 10 10 11 13 8 4 1 4 7 8 8 8 9 10 11 12 10 10 12 8 7 8 7 6 7 8 5 5 6 2 4 3 3 6 5 5 6 5 4 4 4 5 5 1 6 5 2 4 6 3 6 5 2 5 5 5 7 7 5 5 4 4 4 4 4 4 4
24 23 21 20 19 17 17 16 15 13 8 3 2 2 4 4 6 7 8 10 9 9 10 9 11 7 3 2 5 6 7 7 8 10 10 10 10 9 12 15 10 9 8 7 5 5 8 7 7 5 2 3 5 6 5 4 4 4 4 1 1 3 4 5 3 5 4 5 3 6 2 4 4 5 6 5 6 6 6 5 4 4 5 5 4 4 4 4
23 22 21 20 19 18 17 17 16 14 9 5 3 3 4 4 5 6 8 12 9 8 8 6 7 6 4 2 5 6 5 5 8 10 9 8 8 6 11 13 9 10 8 6 7 5 10 10 6 3 2 4 6 6 4 4 4 3 3 5 3 3 4 3 2 4 1 5 5 3 3 3 3 6 6 7 7 6 6 5 4 5 4 5 4 4 4 4
23 22 21 20 19 18 17 17 17 13 9 8 7 6 6 6 5 4 10 15 8 6 7 4 4 5 3 2 4 5 4 5 9 9 8 8 7 6 9 7 5 9 6 8 12 8 8 8 3 2 4 5 4 5 6 4 2 4 3 4 4 4 6 3 1 4 3 5 6 3 4 4 3 7 8 8 8 7 7 6 5 5 4 4 4 4 4 4
22 21 20 19 19 18 17 17 17 14 9 8 9 7 5 6 5 2 11 16 6 4 6 4 5 4 2 5 4 6 7 8 9 8 8 7 6 6 7 4 2 6 5 6 10 8 6 5 3 3 4 5 4 6 5 2 2 2 1 4 3 3 6 7 4 6 8 7 5 5 3 5 3 6 8 8 8 8 6 6 5 4 5 4 4 4 4 4
22 21 20 19 19 17 15 17 18 15 9 7 7 7 5 5 4 2 11 14 5 3 2 3 4 3 2 6 7 8 6 7 7 6 9 8 5 4 6 5 3 5 6 4 6 6 4 4 5 4 4 5 2 3 5 7 5 5 4 4 5 3 3 7 5 6 10 8 4 6 5 6 8 8 10 9 7 7 5 5 4 4 4 4 4 4 4 4
21 20 19 19 19 16 15 17 18 16 11 7 5 5 6 5 4 4 10 9 2 2 2 3 1 2 3 4 8 9 5 6 7 7 10 9 5 3 5 7 6 7 5 1 3 3 3 6 5 2 3 6 4 4 5 5 5 6 5 4 3 3 0 3 2 1 7 8 4 5 5 5 10 11 10 8 6 6 6 6 6 5 5 4 5 4 5 4
21 20 18 18 17 14 13 15 18 17 13 11 10 7 4 2 3 3 6 6 4 2 2 5 4 4 6 6 9 8 3 6 8 10 13 10 5 4 5 6 7 7 4 1 1 2 4 7 3 6 5 4 3 2 6 6 6 6 6 5 5 2 1 3 2 3 3 5 2 2 5 2 5 8 7 7 7 8 9 8 7 7 6 5 6 5 5 4
21 20 17 17 15 12 11 13 15 16 15 17 17 10 3 2 3 4 2 3 7 4 2 5 2 4 7 6 7 5 3 7 9 11 14 11 6 5 4 5 8 3 4 3 3 4 6 5 6 7 2 4 6 5 9 9 6 5 4 5 3 1 1 4 4 6 4 4 0 3 7 1 1 3 4 4 5 6 5 5 5 6 6 5 6 6 5 5
21 19 17 16 13 9 8 11 11 12 16 18 16 9 3 7 6 2 3 1 5 6 4 4 3 4 6 3 6 6 5 5 4 9 14 10 5 4 3 6 7 4 5 6 5 4 4 2 6 4 1 7 8 7 8 8 5 4 4 5 1 1 2 1 3 6 5 4 5 6 6 3 3 1 1 2 3 3 1 3 4 5 6 5 4 5 5 6
20 19 17 14 12 8 5 8 9 11 12 11 11 9 9 10 5 3 3 2 3 5 3 2 1 1 3 4 6 6 3 1 1 6 11 7 2 3 4 4 6 5 4 5 8 7 2 3 3 3 2 6 8 6 7 7 4 3 2 5 1 2 4 2 1 2 5 6 5 8 6 3 2 1 4 3 4 2 2 2 5 4 4 4 4 4 5 5
20 18 16 14 12 7 3 4 9 12 8 4 6 11 12 10 4 3 3 3 2 6 4 2 2 2 4 5 5 2 2 2 1 4 7 6 2 2 3 2 4 4 1 3 8 7 2 2 2 5 5 7 8 5 4 5 3 3 1 4 3 3 4 1 1 3 5 4 0 5 4 4 3 3 6 3 3 3 3 1 2 0 3 2 0 3 4 4
19 17 15 14 11 7 2 1 8 12 5 2 5 11 11 9 3 4 3 4 2 5 5 3 3 4 7 5 4 2 5 3 4 4 8 7 3 3 3 2 3 3 3 3 4 3 2 4 4 6 7 8 7 4 1 4 5 2 2 4 4 5 3 1 2 3 2 2 2 4 4 4 4 3 6 2 1 4 4 4 2 2 3 1 3 4 4 4
19 17 14 13 12 9 2 1 8 8 2 2 9 12 11 8 1 4 3 6 3 3 3 3 2 4 5 4 3 3 3 4 5 7 9 8 6 3 6 4 3 3 1 3 4 0 1 6 7 6 7 7 6 3 1 4 6 0 2 5 5 5 3 2 4 4 2 3 2 4 4 2 3 4 5 2 4 3 3 2 2 1 4 7 6 5 5 5
18 17 13 11 12 10 4 4 7 3 1 7 11 12 10 5 1 3 5 5 2 2 1 3 3 4 5 4 5 4 2 2 3 4 7 10 8 3 6 4 4 2 3 5 3 2 1 4 5 6 7 5 2 2 3 4 3 3 3 5 4 3 4 4 5 3 0 1 2 5 3 2 4 4 3 1 4 4 4 2 0 2 9 10 7 6 6 6
17 16 13 10 10 8 6 7 5 3 5 10 11 12 7 1 2 4 6 3 2 2 1 2 4 4 5 6 7 4 2 3 3 4 6 10 10 5 5 3 6 4 6 6 5 2 0 0 2 6 5 2 2 4 2 3 1 3 5 5 3 4 4 4 5 3 3 2 4 6 2 1 5 4 0 1 3 5 5 3 3 7 13 8 5 7 7 6
17 15 12 10 8 6 7 7 3 4 8 10 12 9 2 3 4 5 3 1 1 2 1 2 3 4 6 6 6 6 5 3 2 4 5 5 7 7 4 2 5 6 6 7 4 1 3 2 1 4 2 1 3 2 1 1 3 1 4 4 4 6 5 4 3 3 4 2 5 6 1 1 3 4 2 3 4 5 6 4 6 11 12 8 7 7 6 6
16 13 11 10 7 6 6 4 4 7 10 12 11 4 3 3 5 6 1 2 1 2 2 2 3 4 6 5 4 5 5 5 5 5 5 4 7 7 4 3 4 5 5 6 5 5 6 5 3 1 2 1 3 0 2 3 3 3 4 4 3 4 4 3 5 4 4 1 5 6 3 3 1 4 3 4 5 5 8 8 10 12 12 10 8 7 6 6
14 12 10 8 7 6 4 4 7 10 12 12 7 3 4 3 3 2 1 2 1 2 1 1 3 3 4 4 4 5 3 4 5 5 3 3 5 4 4 2 1 3 4 3 3 5 4 2 4 5 3 4 5 3 4 6 6 6 5 5 3 3 3 2 3 2 1 3 3 3 3 2 3 5 4 5 6 5 6 7 9 11 12 10 8 7 6 5
13 9 8 6 6 6 5 6 9 10 12 9 3 4 6 5 1 2 2 2 1 2 1 1 2 3 4 5 4 5 3 2 3 3 2 2 4 4 3 1 3 3 1 1 2 4 3 4 7 7 5 4 5 4 3 4 5 5 3 4 3 2 3 2 3 2 2 2 2 3 2 1 3 3 3 5 6 5 5 6 6 8 9 9 8 6 6 6
11 7 6 5 4 4 4 6 7 9 12 7 4 5 6 4 1 2 1 2 2 1 2 1 3 5 5 4 2 3 4 3 2 3 3 3 4 4 4 4 3 4 3 3 2 2 2 3 5 4 3 4 4 3 2 2 2 2 3 5 3 3 3 1 3 1 1 2 3 4 1 1 1 3 4 5 6 4 3 4 3 3 4 4 3 5 6 6
9 6 4 3 3 3 4 6 7 9 10 5 6 6 5 2 3 1 2 4 1 1 2 2 4 5 5 3 3 2 2 2 3 4 4 4 2 1 3 4 4 3 4 3 1 1 3 2 5 4 3 2 4 1 3 5 2 2 2 4 2 2 4 1 2 3 2 1 3 3 1 2 3 4 6 4 4 4 3 1 2 1 1 2 4 5 6 6
8 5 2 2 3 3 4 6 7 9 6 5 6 4 2 3 2 2 3 2 2 3 2 4 5 5 4 4 4 4 2 2 4 4 3 3 1 1 1 3 2 3 4 3 1 0 3 2 5 5 4 2 3 2 2 4 0 1 2 2 2 3 6 4 0 1 4 2 2 2 2 4 2 2 5 6 5 6 6 5 4 3 3 1 4 5 5 6
7 4 1 2 3 2 5 6 7 8 4 7 6 2 2 3 4 4 2 1 2 4 5 2 2 2 1 2 3 5 4 3 3 3 2 2 1 2 2 3 2 1 3 4 2 1 3 1 5 4 2 2 1 1 2 3 3 3 1 2 2 2 4 3 2 3 4 1 3 2 2 4 1 1 4 6 5 6 6 5 5 5 4 3 5 5 5 6
8 3 1 4 6 4 5 5 5 6 5 6 3 1 2 1 2 3 2 2 2 4 6 2 1 1 2 1 2 5 3 2 2 3 2 1 1 1 1 2 2 1 2 3 2 1 3 1 6 3 2 6 4 4 3 5 3 4 2 2 2 3 1 2 2 1 2 1 3 4 3 3 2 3 3 3 5 7 6 6 6 6 5 5 5 5 5 5
6 3 2 6 7 4 4 4 4 5 6 5 1 1 1 1 3 3 2 2 2 5 4 2 1 2 2 2 1 3 2 1 1 2 2 1 1 0 1 0 1 4 2 2 3 1 2 2 4 5 2 4 6 4 1 5 6 5 3 3 2 3 2 1 1 1 1 0 2 3 3 2 4 4 4 6 8 7 6 6 6 7 7 6 6 5 5 5
4 2 1 7 7 3 3 4 4 6 5 2 3 2 1 2 3 3 0 2 2 2 2 3 2 3 2 1 1 1 2 2 2 2 1 1 1 2 2 1 0 4 4 4 4 1 3 3 1 6 4 3 2 1 2 2 2 3 4 4 3 2 1 1 1 1 2 2 1 1 3 4 5 3 5 7 7 6 6 6 6 8 7 7 6 5 5 6
4 2 2 6 5 2 4 5 4 4 3 2 2 1 1 0 1 4 4 2 3 1 3 5 4 3 2 1 1 1 1 2 1 1 0 0 2 0 3 2 2 1 3 5 4 1 1 2 1 3 4 2 3 3 1 3 4 3 2 2 1 1 3 3 2 3 1 2 2 2 2 6 5 2 4 6 6 5 6 6 7 8 8 8 7 6 6 6
3 2 3 5 3 1 5 5 2 2 3 2 1 1 1 1 1 3 4 3 3 2 3 4 3 3 3 2 1 1 2 2 1 1 0 1 3 3 3 1 3 2 3 1 2 1 3 3 3 1 2 3 6 4 1 1 4 4 2 2 3 2 4 5 1 3 1 1 1 2 0 6 5 3 4 5 5 5 5 6 7 8 8 8 8 6 5 6
3 1 2 5 1 1 5 4 2 3 1 2 1 1 1 1 1 2 3 3 2 2 3 2 2 2 1 1 2 2 2 2 0 0 1 2 2 4 3 1 1 2 4 1 2 0 2 3 3 2 4 4 5 4 3 3 4 4 2 1 2 1 3 5 4 2 1 1 1 2 1 5 5 3 3 5 5 5 5 5 6 8 8 7 7 6 5 6
1 2 2 5 2 1 3 2 0 2 2 3 2 1 1 1 2 2 2 2 2 2 3 1 1 2 1 2 3 2 2 2 0 1 1 1 1 2 1 1 1 1 1 2 2 1 1 1 2 3 4 5 6 6 5 5 3 1 2 2 1 3 4 3 1 2 1 2 4 3 2 6 5 4 4 5 4 5 6 5 5 7 7 6 6 6 5 5
1 1 2 5 5 4 2 3 4 3 1 2 3 1 2 2 2 1 2 2 1 2 3 0 0 3 3 3 4 2 1 2 1 1 0 1 2 1 2 2 0 2 2 2 3 3 2 1 2 4 2 0 2 3 3 3 2 1 2 1 1 3 3 1 0 3 1 3 4 4 4 6 6 6 7 6 5 6 9 8 5 5 6 6 6 5 5 4
1 1 2 5 6 5 2 1 4 4 2 3 3 1 2 2 1 1 2 3 2 2 3 1 1 3 4 3 4 3 3 2 1 1 1 1 3 2 3 4 1 1 3 6 6 4 3 2 2 5 5 5 5 6 4 2 1 3 4 2 1 1 3 4 3 1 2 2 2 5 5 4 8 8 7 8 7 7 9 8 7 6 6 6 5 5 5 4
1 1 2 1 2 3 2 2 4 3 2 3 3 1 1 1 1 2 2 1 1 2 3 2 2 2 1 2 3 1 2 3 2 2 1 2 3 3 4 3 3 3 4 5 4 3 4 1 1 5 5 5 7 6 2 1 2 3 3 4 3 0 3 4 2 4 3 2 4 6 4 3 7 8 7 9 8 7 8 8 7 6 6 6 5 5 5 5
1 1 2 2 1 1 1 0 2 4 2 2 2 1 1 2 1 1 1 2 2 3 3 2 4 1 4 4 4 2 1 3 3 0 1 2 2 3 4 2 3 5 3 3 3 3 5 1 1 2 3 5 4 4 2 1 2 3 3 6 5 2 4 5 5 5 6 4 7 5 4 4 8 7 8 9 7 6 8 8 6 6 6 6 5 5 5 5
1 1 1 1 1 3 3 0 2 6 3 2 2 1 3 4 4 4 1 2 3 3 3 2 3 2 3 4 5 3 2 1 1 3 2 1 1 1 1 1 2 4 4 3 3 2 4 1 1 1 4 6 4 3 1 2 1 3 4 6 4 3 6 6 5 4 5 6 8 4 4 8 8 8 10 9 5 5 7 6 6 7 6 5 5 5 6 6
1 1 1 2 2 1 1 2 3 5 2 1 1 1 3 6 5 3 1 3 2 2 3 4 5 3 3 4 5 3 6 8 5 3 4 3 0 1 1 2 2 3 4 3 1 2 2 0 1 3 3 6 5 4 3 2 1 4 7 6 2 2 3 3 3 2 3 5 7 3 4 8 7 6 8 7 5 4 5 6 6 7 6 5 5 6 7 7
1 1 1 3 2 1 1 2 3 5 2 0 2 3 2 5 6 4 1 2 5 5 4 7 6 3 3 2 4 4 7 8 7 5 7 6 2 3 2 2 4 2 4 1 1 2 2 2 1 4 3 5 5 5 5 4 2 2 8 8 3 2 2 3 3 3 4 3 2 2 3 6 5 3 4 6 5 5 6 7 6 6 6 5 6 7 7 8
2 1 1 4 2 2 1 2 3 3 3 2 2 3 3 5 5 5 2 2 2 3 5 8 8 4 3 1 5 8 8 9 8 6 7 5 2 3 2 1 4 3 1 2 1 1 3 3 2 3 1 5 5 4 4 4 6 4 5 5 5 3 3 3 3 5 6 5 3 2 5 6 4 3 4 6 7 7 7 6 5 6 7 5 7 8 8 8
Wind_Direction
358 358 358 358 354 354 357 358 2 3 6 12 14 20 25 31 34 35 29 16 9 356 356 351 349 346 342 341 341 338 336 339 341 317 88 45 64 167 200 158 163 143 144 112 103 131 127 211 338 59 112 126 64 98 122 157 104 66 80 98 110 185 192 179 169 172 145 134 139 136 119 117 119 105 115 67 67 81 73 76 82 78 86 100 116 123 118 116
3 3 1 358 355 357 359 0 6 8 12 16 19 22 24 31 34 33 27 14 4 355 357 352 348 343 339 341 340 340 342 3 70 93 73 71 101 155 152 154 168 158 158 126 98 135 116 288 286 86 102 110 357 103 121 185 126 102 108 95 163 199 177 154 162 160 143 140 138 130 125 122 128 135 127 105 125 122 98 98 104 101 103 110 114 114 113 110
5 3 0 357 356 359 359 2 10 13 16 20 21 22 23 28 29 27 22 7 1 358 356 350 344 340 341 342 343 346 352 54 69 35 42 87 116 128 145 157 181 192 232 293 324 50 122 277 184 94 83 91 22 99 112 100 173 160 119 95 225 202 146 137 156 142 136 139 132 129 116 112 133 129 92 132 141 127 123 129 126 126 128 125 123 116 110 100
7 5 1 357 358 359 360 4 13 16 19 22 22 22 23 24 23 19 12 3 0 357 351 345 341 340 343 344 348 351 8 66 40 330 42 101 129 135 155 170 196 229 274 293 321 326 293 80 94 86 83 93 314 30 126 188 204 140 96 154 198 170 126 130 132 111 119 129 126 123 104 118 154 62 101 142 127 135 175 178 141 142 140 134 133 122 108 94
8 7 4 1 0 1 2 6 15 19 21 23 22 20 20 20 17 13 9 2 354 348 349 348 342 344 345 344 350 345 21 66 336 283 58 81 143 157 174 190 236 264 278 298 309 329 62 75 67 56 70 99 350 43 190 244 146 76 10 153 158 132 118 116 118 117 118 109 106 116 118 134 139 77 120 139 110 200 182 121 128 139 137 133 131 126 110 92
8 7 5 3 2 3 5 10 18 20 20 21 20 17 16 14 11 12 6 356 349 353 359 355 348 349 348 349 358 357 62 92 261 273 38 0 178 220 247 271 286 292 289 289 272 149 83 63 57 55 53 46 68 97 234 280 80 91 10 34 85 114 126 126 120 121 120 113 113 125 125 118 109 98 79 53 13 247 116 113 129 131 126 121 119 120 110 99
7 6 5 3 4 6 10 17 20 18 17 17 16 13 11 8 9 8 360 358 359 2 2 357 352 353 354 357 6 26 75 108 273 15 7 330 327 300 305 311 313 312 293 260 191 144 112 68 59 114 83 40 128 142 225 306 55 91 93 44 53 88 118 124 118 110 106 112 119 112 99 99 124 137 53 46 30 70 103 113 122 125 121 116 114 112 108 109
6 5 4 6 7 10 15 20 19 14 11 10 8 6 4 3 4 358 359 2 2 1 357 351 352 355 358 2 36 37 44 0 349 27 353 333 325 314 328 336 353 351 307 273 203 171 132 73 72 138 79 0 141 116 133 75 51 79 118 115 82 79 104 111 106 105 100 101 107 95 89 93 122 132 70 50 60 83 107 116 121 126 121 114 112 113 114 113
5 5 5 8 9 12 17 20 17 11 6 3 0 358 358 357 355 354 357 357 356 354 349 348 351 357 5 13 88 64 338 322 24 28 356 339 323 324 333 347 11 3 337 323 240 191 125 89 221 173 141 248 104 101 70 84 66 142 128 130 114 105 118 116 107 109 108 113 119 103 95 110 109 94 60 53 102 100 107 114 125 125 115 113 114 120 123 118
5 5 7 8 9 12 15 17 14 7 3 359 354 351 353 351 348 348 348 348 349 348 348 350 353 4 16 22 72 76 315 338 18 3 345 336 323 324 330 344 359 345 326 336 232 180 23 225 214 152 142 130 72 73 30 84 131 113 102 95 101 113 119 118 119 117 113 119 128 123 123 140 52 71 89 169 125 111 105 103 109 112 110 116 116 120 122 120
4 5 7 8 10 12 14 16 10 3 0 355 349 343 342 342 337 337 339 343 345 349 352 352 359 10 24 50 84 93 340 342 340 334 335 333 332 330 336 338 331 330 331 344 31 31 359 250 187 112 110 61 63 64 42 66 109 106 102 76 53 77 80 101 123 134 128 112 121 126 123 47 342 28 118 136 125 113 108 102 95 102 110 117 116 114 113 117
4 5 7 8 10 11 14 13 5 1 356 350 343 328 328 329 327 332 338 341 343 350 354 357 5 6 21 56 91 72 345 341 332 340 347 341 343 342 349 347 337 342 341 353 359 2 11 328 60 79 92 113 84 66 65 83 90 97 103 95 53 47 73 106 107 128 115 109 153 129 102 0 336 347 117 122 124 113 108 109 106 108 112 111 110 102 96 105
4 6 8 9 10 11 13 8 3 359 353 347 330 311 315 320 329 339 342 342 342 350 357 3 4 0 41 64 355 346 347 342 344 359 2 348 347 358 8 6 4 7 353 341 335 352 359 339 48 81 104 97 85 92 98 69 75 80 65 95 102 63 129 239 57 102 61 97 164 122 105 241 300 308 137 128 131 124 119 122 122 122 117 105 98 98 88 93
5 7 7 10 10 9 8 4 2 1 358 350 318 305 315 329 344 345 347 347 345 354 357 2 3 3 58 48 308 348 347 343 352 357 359 347 344 358 13 11 10 10 352 337 342 2 354 344 68 74 64 81 83 78 68 34 56 93 54 36 99 117 202 257 303 119 82 224 183 79 133 219 282 250 148 135 138 134 137 141 140 138 124 109 98 108 100 90
5 7 8 11 9 8 5 3 6 9 16 15 317 316 337 353 353 347 356 354 351 357 354 2 9 16 60 344 326 347 338 341 355 355 354 345 344 347 353 357 359 7 2 351 0 17 20 45 76 54 335 22 57 56 45 35 38 78 95 46 1 143 208 280 272 159 125 208 200 58 132 230 266 208 164 143 150 143 145 150 152 146 130 125 118 121 115 96
4 8 10 11 9 7 4 7 16 21 36 52 49 30 17 14 357 358 2 353 349 351 355 10 18 47 87 351 338 348 332 334 346 351 349 342 344 339 342 346 348 2 16 35 38 42 40 52 72 50 17 28 59 77 49 39 20 0 106 157 200 154 185 263 267 222 208 181 185 69 133 213 240 199 170 157 162 152 154 163 166 157 141 135 134 131 125 111
5 8 11 12 10 7 8 19 27 31 51 62 56 47 40 32 11 15 2 355 356 6 26 43 11 51 79 319 344 347 326 335 339 343 350 346 339 338 348 349 348 360 22 50 38 35 30 36 61 32 47 50 61 88 61 29 341 322 43 129 174 151 168 192 244 232 195 174 193 124 138 223 225 178 172 171 168 162 167 172 172 167 153 144 142 137 135 133
4 8 12 12 10 10 17 32 36 38 60 70 58 48 50 41 25 28 1 357 356 17 41 33 14 60 12 326 324 303 301 329 335 343 1 356 344 3 17 18 2 8 24 34 25 25 18 22 62 46 28 27 35 71 93 186 196 198 131 116 140 129 155 171 190 210 179 176 194 143 178 236 192 169 178 179 173 173 178 169 167 172 162 158 149 145 150 146
3 8 12 13 12 15 28 43 42 43 62 83 69 48 44 28 15 6 1 8 28 29 11 338 21 113 246 298 296 298 310 345 352 356 2 353 346 34 49 36 35 40 50 33 9 14 25 35 44 48 10 343 4 117 156 186 162 153 164 132 137 135 168 190 207 222 174 162 188 177 201 206 170 177 187 185 175 167 168 158 157 172 175 172 159 158 160 156
3 7 11 14 14 20 37 48 47 48 59 86 94 46 28 11 6 350 350 8 89 147 237 259 218 192 267 290 308 325 346 19 29 11 1 350 342 41 36 25 38 47 56 41 356 353 50 68 42 359 289 294 276 198 166 148 118 115 113 84 88 118 227 251 237 241 157 155 223 207 192 194 179 184 185 174 162 165 175 177 177 182 187 185 173 170 165 172
2 6 10 13 15 24 41 52 53 53 61 81 88 71 54 45 39 332 328 333 284 247 240 254 232 255 280 281 316 338 10 24 22 10 8 360 359 37 4 17 51 39 7 309 353 348 54 68 354 284 262 292 334 140 117 88 76 82 100 89 47 67 11 318 354 9 113 145 267 176 143 193 191 182 180 164 172 192 193 187 185 184 187 190 180 176 174 183
1 5 8 11 15 24 39 52 54 55 62 71 75 80 104 48 0 259 248 329 304 315 312 284 299 303 286 277 316 340 51 26 6 354 4 10 22 40 6 41 72 50 342 9 44 27 45 44 311 294 243 74 41 58 93 84 75 72 85 100 58 19 322 316 343 7 23 130 178 118 116 39 331 162 184 187 204 222 210 185 171 173 189 200 190 182 176 178
360 2 6 9 13 19 36 45 48 52 55 60 68 74 41 5 359 220 157 89 302 318 353 348 9 329 319 344 350 8 53 38 0 338 354 11 28 55 69 63 72 62 14 36 87 83 65 345 321 330 103 89 52 27 73 81 70 69 77 102 117 254 124 298 336 12 24 92 128 116 91 17 4 61 223 293 298 280 250 159 144 162 194 203 191 181 173 175
358 360 3 5 9 11 19 31 35 36 38 56 67 43 9 359 8 151 136 76 312 304 318 320 276 294 320 325 343 17 66 41 352 333 353 21 54 49 74 85 74 64 34 61 91 96 115 272 338 40 50 86 79 37 59 84 53 19 92 118 158 231 161 184 245 38 30 48 107 105 67 340 356 147 233 309 334 313 6 130 160 164 173 166 161 172 175 177
355 357 360 1 6 5 345 12 23 15 12 72 58 9 1 356 338 163 121 69 353 310 318 334 344 350 323 318 330 11 93 19 332 307 345 27 72 40 50 85 77 67 170 100 80 82 74 311 41 77 50 59 79 51 51 112 81 351 243 167 176 172 175 231 37 84 51 25 177 98 78 286 304 208 223 299 338 288 340 49 194 130 64 61 178 205 190 175
353 353 356 358 1 357 327 13 5 360 4 89 6 346 351 349 313 170 111 58 15 319 335 350 2 348 333 337 337 37 65 354 294 341 7 13 16 90 73 357 45 75 182 146 83 91 26 4 51 84 72 59 62 50 21 123 100 35 222 177 155 125 131 323 57 84 89 219 258 83 125 245 301 241 221 212 245 273 336 20 350 38 60 3 270 246 217 188
351 348 350 354 358 359 5 354 347 355 42 343 336 337 341 340 294 163 83 44 10 304 315 306 334 355 333 330 346 64 83 290 309 14 18 12 352 71 73 22 27 31 231 112 64 22 321 12 34 56 66 61 55 33 309 119 107 261 209 138 135 132 162 194 105 100 171 203 316 34 105 168 281 256 248 168 168 256 328 344 308 154 190 213 217 222 217 206
349 343 343 347 353 359 13 356 346 2 10 325 326 331 334 333 162 117 78 69 321 289 277 292 315 330 318 347 27 82 174 287 27 339 341 25 22 50 74 73 128 46 14 96 104 252 318 27 37 62 61 60 64 284 248 135 121 248 198 133 137 155 162 145 108 104 75 121 290 325 57 128 259 271 307 119 174 215 228 226 320 243 236 221 200 209 211 208
348 339 335 341 345 348 353 344 342 359 337 328 328 328 330 9 108 65 73 99 294 294 195 314 334 328 337 10 23 35 23 31 75 288 327 30 27 47 87 131 142 91 27 85 128 217 42 255 151 101 70 53 227 272 271 134 245 243 138 108 65 59 71 80 98 111 49 57 246 284 21 141 272 281 85 136 204 213 199 174 158 228 243 231 202 215 211 206
346 335 327 332 336 332 332 329 328 344 335 331 329 327 2 87 66 61 54 191 267 294 274 347 333 342 23 34 7 7 29 14 340 347 11 22 4 27 76 124 111 86 23 42 75 308 314 296 152 97 54 222 188 240 333 341 282 258 99 72 37 29 38 43 49 92 65 2 256 271 331 117 282 280 196 187 218 190 167 177 204 224 239 234 216 217 208 205
343 333 322 323 326 320 327 340 339 335 333 331 330 345 100 52 58 92 112 243 230 309 356 8 322 5 41 59 22 1 21 358 342 19 30 6 4 15 29 32 53 56 19 17 17 338 355 17 4 321 313 34 97 168 328 354 9 67 70 57 40 352 12 28 358 39 84 282 262 280 335 101 195 273 261 240 242 198 171 189 208 221 235 232 221 216 208 203
340 329 316 312 312 308 309 322 323 326 332 332 336 60 90 33 34 101 274 316 307 293 36 339 312 21 35 50 31 352 7 7 359 42 51 23 34 24 21 52 89 41 10 338 348 351 13 31 321 320 338 39 58 31 343 358 24 45 49 58 63 349 9 17 328 359 137 239 261 304 347 99 213 255 267 265 257 230 208 206 206 216 229 231 224 214 200 187
338 326 316 305 304 308 306 310 315 327 335 337 8 64 73 75 57 227 271 338 265 238 113 44 345 41 50 45 17 340 16 24 346 31 50 60 63 23 353 67 133 93 84 200 27 7 349 320 343 2 354 20 71 75 1 343 7 30 63 85 84 78 52 328 286 334 306 263 277 297 311 294 283 276 266 274 268 247 242 246 233 224 230 236 228 206 191 192
339 329 316 302 307 312 309 314 319 331 340 356 70 59 66 89 217 213 247 272 241 304 26 43 10 28 47 50 347 329 46 33 350 31 23 32 51 12 338 343 26 78 105 87 62 76 65 324 340 9 328 354 55 115 137 122 46 24 151 124 101 136 132 250 244 205 266 281 300 312 337 156 271 287 279 280 278 268 253 246 241 241 242 235 205 179 187 202
343 330 306 285 310 312 301 311 322 334 345 34 74 60 88 161 244 206 229 247 227 9 8 32 49 42 19 351 336 11 80 32 16 42 32 39 71 25 333 318 346 66 98 76 349 106 84 262 270 290 287 18 28 276 125 93 46 309 142 89 34 187 139 99 184 176 177 309 309 320 301 216 228 275 294 312 314 320 342 21 72 34 309 138 157 185 195 203
345 334 287 271 305 301 295 302 316 331 355 76 69 56 143 202 201 178 213 218 139 138 87 18 45 58 355 321 341 358 16 33 42 45 23 34 83 256 305 274 297 56 106 120 179 155 71 278 284 326 336 47 41 306 64 75 106 310 50 56 259 182 123 105 155 35 62 71 288 308 298 298 323 290 309 351 351 334 341 355 20 359 329 175 191 209 204 204
352 355 1 339 345 316 294 294 311 331 20 86 82 107 219 218 172 183 215 137 119 114 95 53 28 64 343 330 328 328 350 23 46 54 25 11 326 267 316 282 282 45 149 145 155 184 121 259 295 345 345 296 1 89 36 47 117 88 39 228 223 83 83 98 94 6 35 66 282 326 326 306 352 207 318 348 337 310 312 319 328 323 304 259 233 223 214 215
351 10 50 4 353 326 310 309 321 347 54 77 67 205 225 223 183 196 186 136 121 79 81 113 159 137 186 121 310 305 352 19 11 46 67 14 298 210 24 295 296 23 201 158 93 65 103 301 295 306 256 294 338 73 14 334 32 82 124 189 109 74 355 6 71 33 17 9 298 324 325 276 203 214 292 302 266 270 282 297 306 292 271 257 249 233 227 229
355 30 37 351 348 350 350 329 334 28 70 76 81 213 219 246 259 236 183 125 97 82 85 172 165 89 148 139 207 283 2 59 58 65 112 98 8 83 75 252 349 9 343 113 113 75 67 91 287 290 271 319 359 51 37 315 341 25 48 18 30 119 150 346 63 136 140 122 278 317 337 285 232 218 209 223 236 242 256 273 274 262 256 251 246 232 221 220
25 61 306 337 359 27 358 340 11 52 74 112 177 208 265 257 281 299 340 95 100 91 118 180 157 98 146 174 177 258 21 88 122 100 129 142 81 319 309 184 55 353 3 51 88 86 41 79 278 300 330 20 8 29 153 199 306 0 29 18 357 14 67 67 53 72 113 133 170 301 322 274 253 218 194 227 244 234 237 253 259 262 263 257 247 231 217 217
51 63 290 336 13 37 3 18 41 62 96 124 164 222 292 202 316 333 346 67 108 121 133 146 138 121 148 134 125 231 43 66 76 98 162 198 123 80 294 199 171 312 13 38 45 76 88 88 103 316 354 17 244 247 188 182 180 152 116 113 150 29 67 79 4 324 50 110 159 164 271 271 261 214 214 241 250 243 241 244 259 270 266 262 257 234 216 218
68 77 294 337 347 332 32 49 22 49 114 134 170 213 272 60 63 350 348 27 70 72 80 107 117 124 142 127 122 157 104 70 11 68 132 247 163 180 268 207 148 113 92 69 318 197 147 97 78 304 297 256 254 274 37 151 149 128 112 127 142 117 100 113 198 272 337 25 137 124 246 271 264 227 231 257 259 254 246 230 247 267 263 258 261 248 226 225
100 180 313 2 316 261 56 61 334 10 78 245 260 222 293 76 77 10 10 22 34 58 51 62 108 111 132 139 128 136 122 113 57 72 236 262 226 224 247 260 154 80 83 117 263 175 99 72 54 310 300 300 301 333 37 54 81 88 18 43 113 84 110 142 169 183 197 271 160 83 307 269 274 263 245 269 276 278 273 238 239 264 271 263 260 257 243 233
121 224 313 14 20 137 80 114 144 21 302 305 35 46 352 74 72 30 34 23 19 103 87 70 133 96 106 106 99 132 153 123 103 295 191 163 262 252 154 92 205 170 104 171 184 97 67 58 72 35 357 347 343 351 355 353 23 92 311 338 83 77 87 116 128 86 23 240 156 126 249 255 272 304 298 291 303 310 299 276 243 251 269 279 270 261 247 234
59 197 284 347 20 65 106 168 146 136 272 21 75 62 19 42 45 78 108 49 29 122 111 72 98 87 86 77 65 54 65 108 136 298 101 202 286 316 46 34 171 193 194 151 120 93 103 128 106 98 89 30 309 294 277 295 316 302 311 327 98 88 103 163 1 64 328 246 154 151 225 259 285 312 316 313 328 322 305 306 297 261 261 269 267 267 259 238
76 136 285 331 12 54 85 152 107 123 166 118 100 15 59 80 316 344 86 73 49 80 80 55 94 77 59 62 67 27 358 35 67 79 131 240 273 286 327 347 38 120 88 88 80 73 99 120 123 135 157 181 202 230 234 208 263 301 308 297 279 85 107 108 91 119 204 183 194 217 216 264 291 295 301 305 312 308 298 304 307 291 281 274 270 275 265 240
92 157 158 151 351 24 24 8 71 103 171 135 125 193 158 142 314 348 35 72 72 69 68 44 50 99 131 105 98 66 336 0 20 75 167 250 267 288 315 5 39 16 49 76 61 74 98 75 136 148 188 208 199 220 247 85 227 252 274 289 292 118 113 115 161 218 168 107 286 257 193 213 271 272 280 289 296 298 291 291 290 287 287 283 281 280 261 246
128 184 165 151 195 175 139 286 105 107 109 120 118 138 146 121 148 169 80 30 26 51 92 42 6 29 184 164 131 142 1 11 357 319 217 275 301 331 340 8 4 350 28 54 13 87 108 93 223 164 268 266 222 233 242 173 239 231 222 258 274 201 170 190 220 208 159 181 257 242 171 222 262 275 281 279 275 274 277 283 285 285 282 277 282 282 266 255
88 130 288 31 121 181 183 238 104 113 111 100 79 103 154 152 176 211 211 53 7 2 89 132 294 289 171 148 120 136 184 149 279 264 212 176 303 357 14 316 326 4 54 63 7 76 119 186 233 121 318 301 294 299 240 167 299 298 259 255 253 211 206 216 237 216 184 228 258 245 237 262 263 258 267 277 278 262 267 284 290 283 280 277 270 265 261 254
60 154 275 40 62 146 174 32 97 120 103 64 127 170 158 157 175 208 200 113 140 323 78 152 206 188 141 136 120 156 209 179 168 221 181 149 273 220 182 219 210 22 32 65 25 20 89 234 234 91 7 307 315 6 39 101 208 266 282 294 289 248 246 236 241 216 206 263 278 283 279 278 267 246 256 281 306 301 294 299 291 278 274 273 266 259 257 255
340 232 144 117 111 354 12 33 95 124 131 127 169 170 166 191 186 161 147 177 168 182 180 171 175 136 82 111 149 218 224 177 164 191 174 158 186 196 204 214 168 76 9 46 79 22 85 91 37 69 42 293 311 5 351 341 28 304 301 300 266 189 219 223 214 197 190 216 277 332 292 263 263 291 292 289 309 323 305 293 291 288 273 250 250 259 257 249
9 320 52 110 130 339 51 75 65 118 186 224 200 185 200 225 206 140 100 283 203 191 191 166 149 109 61 184 222 228 207 179 184 198 176 158 159 177 185 159 148 135 103 125 49 11 109 116 123 98 83 271 293 338 327 352 26 350 286 247 205 201 238 247 266 240 202 165 153 213 241 240 252 327 325 304 310 313 293 274 276 291 287 260 243 251 258 256